Location: Crescent
(42.8242°N, 73.7329°W)
Time: 18:07:18
(UTC+00:00)

SR - All Passes

Search period start: 16 February 2026 00:00
Search period end: 26 February 2026 00:00
Orbit: 574 x 847 km, 66.7° (Epoch: 15 February)

Date Brightness Start Highest point End Pass type
(mag) Time Alt. Az. Time Alt. Az. Time Alt. Az.
16 Feb - 09:37:34 10° SSW 09:41:44 70° ESE 09:46:05 10° NE visible
16 Feb - 11:21:17 10° W 11:23:55 16° NW 11:26:40 10° N visible
16 Feb - 16:34:47 10° NNE 16:36:53 12° NE 16:39:02 10° ENE daylight
16 Feb - 18:14:29 10° NNW 18:19:28 62° ENE 18:24:50 10° SE daylight
16 Feb - 19:57:11 10° WNW 20:00:47 19° WSW 20:04:31 10° SSW daylight
17 Feb - 08:43:28 10° S 08:47:01 27° ESE 08:50:41 10° NE visible
17 Feb - 10:24:46 10° WSW 10:28:33 31° NW 10:32:30 10° NNE visible
17 Feb - 17:19:54 10° NNW 17:24:20 31° NE 17:29:03 10° ESE daylight
17 Feb - 19:01:19 10° NW 19:06:06 41° WSW 19:11:12 10° S daylight
18 Feb - 07:51:39 10° ESE 07:52:32 11° ESE 07:53:26 10° E visible
18 Feb - 09:29:15 10° SW 09:33:27 72° WNW 09:37:51 10° NNE visible
18 Feb - 11:14:32 10° NW 11:16:00 11° NW 11:17:29 10° NNW visible
18 Feb - 16:25:43 10° N 16:28:57 17° NE 16:32:21 10° E daylight
18 Feb - 18:06:10 10° NNW 18:11:15 89° SW 18:16:43 10° SSE daylight
18 Feb - 19:50:12 10° W 19:52:18 12° WSW 19:54:27 10° SW daylight
19 Feb - 08:34:36 10° S 08:38:36 44° ESE 08:42:46 10° NE visible
19 Feb - 10:17:09 10° W 10:20:28 22° NW 10:23:55 10° N visible
19 Feb - 17:11:24 10° NNW 17:16:13 44° NE 17:21:22 10° SE daylight
19 Feb - 18:53:24 10° NW 18:57:44 28° WSW 19:02:19 10° SSW daylight
20 Feb - 07:41:10 10° SSE 07:44:00 18° ESE 07:46:54 10° ENE visible
20 Feb - 09:21:09 10° SW 09:25:13 45° NW 09:29:30 10° NNE visible
20 Feb - 16:16:58 10° N 16:20:58 23° NE 16:25:10 10° E daylight
20 Feb - 17:57:56 10° NW 18:02:58 60° WSW 18:08:21 10° SSE daylight
21 Feb - 08:26:02 10° SSW 08:30:14 74° ESE 08:34:38 10° NE visible
21 Feb - 10:09:51 10° WNW 10:12:28 15° NW 10:15:10 10° N visible
21 Feb - 15:23:08 10° N 15:25:27 13° NE 15:27:50 10° ENE daylight
21 Feb - 17:02:59 10° NNW 17:08:02 65° ENE 17:13:27 10° SE daylight
21 Feb - 18:45:45 10° WNW 18:49:18 19° WSW 18:53:00 10° SSW daylight
22 Feb - 07:31:53 10° S 07:35:30 28° ESE 07:39:15 10° NE visible
22 Feb - 09:13:18 10° WSW 09:17:04 30° NW 09:21:02 10° NNE visible
22 Feb - 16:08:21 10° NNW 16:12:53 32° NE 16:17:42 10° ESE daylight
22 Feb - 17:49:50 10° NW 17:54:39 40° WSW 17:59:44 10° S daylight
23 Feb - 06:39:43 10° ESE 06:41:01 11° ESE 06:42:19 10° E night (unlit)
23 Feb - 08:17:43 10° SW 08:21:56 69° WNW 08:26:22 10° NNE visible
23 Feb - 10:03:09 10° NW 10:04:32 11° NW 10:05:56 10° NNW visible
23 Feb - 15:14:07 10° N 15:17:31 18° NE 15:21:03 10° E daylight
23 Feb - 16:54:39 10° NNW 16:59:47 86° WSW 17:05:17 10° SSE daylight
23 Feb - 18:38:52 10° W 18:40:49 12° WSW 18:42:49 10° SW daylight
24 Feb - 07:23:02 10° S 07:27:04 46° ESE 07:31:18 10° NE visible
24 Feb - 09:05:41 10° W 09:08:59 21° NW 09:12:26 10° N visible
24 Feb - 15:59:51 10° NNW 16:04:45 46° NE 16:09:59 10° SE daylight
24 Feb - 17:41:55 10° NW 17:46:16 27° WSW 17:50:49 10° SSW daylight
25 Feb - 06:29:30 10° SSE 06:32:27 19° ESE 06:35:29 10° ENE night (unlit)
25 Feb - 08:09:38 10° SW 08:13:42 44° NW 08:18:00 10° NNE visible
25 Feb - 15:05:23 10° N 15:09:30 24° NE 15:13:50 10° E daylight
25 Feb - 16:46:25 10° NW 16:51:29 58° WSW 16:56:54 10° SSE daylight
